Tracking 20715 objects as of 26-May-2020
HD Live streaming from Space Station
objects crossing your sky now

COSMOS 858

Track COSMOS 858 now!
10-day predictions
COSMOS 858 is classified as:


NORAD ID: 9443
Int'l Code: 1976-098A
Perigee: 774.9 km
Apogee: 795.2 km
Inclination: 74.1 °
Period: 100.4 minutes
Semi major axis: 7156 km
RCS: 2.2223 m2 (large)
Launch date: September 29, 1976
Source: Commonwealth of Independent States (former USSR) (CIS)
Launch site: PLESETSK MISSILE AND SPACE COMPLEX (PKMTR)
aabbcc
Your satellite tracking list
Your tracking list is empty




NASA's NSSDC Master Catalog

Two Line Element Set (TLE):
1  9443U 76098A   20146.41288776 +.00000012 +00000-0 +13648-4 0  9995
2  9443 074.0501 248.9635 0014205 198.3098 161.7545 14.34152181281590
Source of the keplerian elements: AFSPC